AAL1733 KMCO-KMIA

Flight info

Callsign AAL1733
Flight time 0h 46m
Altitude 23000
Route DDANY3 DDANY CSTAL3
Aircraft B738/M-SDE2E3FGHIRWXY/LB1

Departure

Time 2026-04-22 08:29
Airport Orlando International Airport (KMCO)

Arrival

Time 2026-04-22 09:16
Airport Miami International Airport (KMIA)
Time Latitude Longitude Altitude Speed Heading
2026-04-22 07:56 28.42712 -81.31505 93 ft 0 kts 121°
2026-04-22 08:18 28.42714 -81.31509 93 ft 3 kts 121°
2026-04-22 08:18 28.42722 -81.31527 94 ft 4 kts 102°
2026-04-22 08:18 28.42727 -81.31556 94 ft 4 kts 97°
2026-04-22 08:18 28.42729 -81.31587 93 ft 4 kts 92°
2026-04-22 08:19 28.42730 -81.31617 94 ft 4 kts 91°
2026-04-22 08:19 28.42732 -81.31648 94 ft 4 kts 110°
2026-04-22 08:19 28.42742 -81.31663 93 ft 1 kts 167°
2026-04-22 08:19 28.42746 -81.31664 93 ft 0 kts 167°
2026-04-22 08:21 28.42745 -81.31663 93 ft 1 kts 167°
2026-04-22 08:21 28.42729 -81.31659 92 ft 3 kts 167°
2026-04-22 08:22 28.42698 -81.31651 94 ft 6 kts 167°
2026-04-22 08:22 28.42655 -81.31640 97 ft 7 kts 168°
2026-04-22 08:22 28.42594 -81.31625 96 ft 10 kts 168°
2026-04-22 08:22 28.42516 -81.31609 95 ft 12 kts 178°
2026-04-22 08:23 28.42439 -81.31641 99 ft 12 kts 211°
2026-04-22 08:23 28.42361 -81.31698 98 ft 13 kts 225°
2026-04-22 08:23 28.42346 -81.31795 99 ft 13 kts 269°
2026-04-22 08:23 28.42345 -81.31903 100 ft 14 kts 269°
2026-04-22 08:24 28.42308 -81.31983 101 ft 13 kts 199°
2026-04-22 08:24 28.42203 -81.31987 98 ft 17 kts 179°
2026-04-22 08:24 28.42075 -81.31985 97 ft 20 kts 179°
2026-04-22 08:24 28.41929 -81.31983 99 ft 21 kts 179°
2026-04-22 08:25 28.41804 -81.31982 98 ft 16 kts 179°
2026-04-22 08:25 28.41694 -81.31980 98 ft 16 kts 180°
2026-04-22 08:25 28.41617 -81.31980 99 ft 11 kts 180°
2026-04-22 08:25 28.41552 -81.32004 97 ft 10 kts 233°
2026-04-22 08:26 28.41543 -81.32073 96 ft 6 kts 270°
2026-04-22 08:26 28.41543 -81.32088 96 ft 0 kts 270°
2026-04-22 08:27 28.41543 -81.32093 96 ft 2 kts 270°
2026-04-22 08:27 28.41542 -81.32126 96 ft 7 kts 268°
2026-04-22 08:27 28.41541 -81.32171 96 ft 4 kts 269°
2026-04-22 08:28 28.41544 -81.32193 96 ft 4 kts 300°
2026-04-22 08:28 28.41574 -81.32197 96 ft 5 kts 358°
2026-04-22 08:28 28.41731 -81.32199 96 ft 57 kts 359°
2026-04-22 08:28 28.42370 -81.32206 104 ft 127 kts 359°
2026-04-22 08:29 28.43448 -81.32219 302 ft 168 kts 359°
2026-04-22 08:29 28.44623 -81.32256 1093 ft 175 kts
2026-04-22 08:29 28.45869 -81.32181 1644 ft 190 kts 23°
2026-04-22 08:29 28.46945 -81.31234 1907 ft 207 kts 59°
2026-04-22 08:30 28.47593 -81.29707 2278 ft 220 kts 70°
2026-04-22 08:30 28.48154 -81.28068 2899 ft 225 kts 71°
2026-04-22 08:30 28.48719 -81.26408 3611 ft 226 kts 71°
2026-04-22 08:30 28.49296 -81.24730 4300 ft 228 kts 70°
2026-04-22 08:31 28.49881 -81.23046 4870 ft 230 kts 70°
2026-04-22 08:31 28.50414 -81.21340 4962 ft 230 kts 77°
2026-04-22 08:31 28.51047 -81.17765 4980 ft 230 kts 81°
2026-04-22 08:32 28.51035 -81.15959 5030 ft 232 kts 100°
2026-04-22 08:32 28.50648 -81.14167 5554 ft 235 kts 104°
2026-04-22 08:32 28.50218 -81.12365 6224 ft 237 kts 103°
2026-04-22 08:32 28.49789 -81.10544 6816 ft 241 kts 103°
2026-04-22 08:33 28.49365 -81.08711 7369 ft 244 kts 103°
2026-04-22 08:33 28.48935 -81.06832 7976 ft 247 kts 103°
2026-04-22 08:33 28.48326 -81.05001 8505 ft 253 kts 122°
2026-04-22 08:33 28.47111 -81.03536 9095 ft 257 kts 138°
2026-04-22 08:34 28.45707 -81.02253 9687 ft 261 kts 140°
2026-04-22 08:34 28.44271 -81.00972 10249 ft 264 kts 140°
2026-04-22 08:34 28.42822 -80.99677 10781 ft 267 kts 140°
2026-04-22 08:34 28.41362 -80.98364 11315 ft 269 kts 141°
2026-04-22 08:35 28.39886 -80.97031 11853 ft 272 kts 141°
2026-04-22 08:35 28.38402 -80.95686 12420 ft 274 kts 141°
2026-04-22 08:35 28.36902 -80.94323 12986 ft 277 kts 141°
2026-04-22 08:35 28.35394 -80.92953 13560 ft 279 kts 141°
2026-04-22 08:36 28.33869 -80.91565 14116 ft 283 kts 141°
2026-04-22 08:36 28.32321 -80.90158 14610 ft 287 kts 142°
2026-04-22 08:36 28.30755 -80.88734 15102 ft 291 kts 142°
2026-04-22 08:36 28.29163 -80.87289 15601 ft 295 kts 142°
2026-04-22 08:37 28.27756 -80.85595 16079 ft 300 kts 120°
2026-04-22 08:37 28.26893 -80.83428 16615 ft 303 kts 112°
2026-04-22 08:37 28.26117 -80.81196 17115 ft 306 kts 112°
2026-04-22 08:37 28.25336 -80.78932 17616 ft 310 kts 112°
2026-04-22 08:38 28.24547 -80.76675 18094 ft 314 kts 112°
2026-04-22 08:38 28.23719 -80.74340 18579 ft 317 kts 113°
2026-04-22 08:38 28.22886 -80.72009 18989 ft 321 kts 113°
2026-04-22 08:38 28.22034 -80.69698 19400 ft 323 kts 118°
2026-04-22 08:39 28.20647 -80.67710 19758 ft 324 kts 143°
2026-04-22 08:39 28.18693 -80.66485 20169 ft 321 kts 165°
2026-04-22 08:39 28.16551 -80.65777 20619 ft 322 kts 168°
2026-04-22 08:39 28.14367 -80.65138 21011 ft 326 kts 169°
2026-04-22 08:40 28.12161 -80.64509 21405 ft 329 kts 169°
2026-04-22 08:40 28.09937 -80.63870 21816 ft 331 kts 169°
2026-04-22 08:40 28.07692 -80.63217 22198 ft 334 kts 169°
2026-04-22 08:40 28.05431 -80.62552 22589 ft 337 kts 169°
2026-04-22 08:41 28.03150 -80.61875 22978 ft 340 kts 169°
2026-04-22 08:41 28.00856 -80.61191 23356 ft 343 kts 169°
2026-04-22 08:41 27.98589 -80.60513 23730 ft 345 kts 169°
2026-04-22 08:41 27.96263 -80.59816 24041 ft 348 kts 169°
2026-04-22 08:42 27.93914 -80.59112 24250 ft 351 kts 170°
2026-04-22 08:42 27.91552 -80.58404 24229 ft 350 kts 170°
2026-04-22 08:42 27.89202 -80.57699 24243 ft 349 kts 170°
2026-04-22 08:42 27.86853 -80.56995 24246 ft 349 kts 170°
2026-04-22 08:43 27.84504 -80.56292 24247 ft 350 kts 170°
2026-04-22 08:43 27.82179 -80.55597 24255 ft 350 kts 170°
2026-04-22 08:43 27.79808 -80.54889 24348 ft 355 kts 170°
2026-04-22 08:43 27.77418 -80.54175 24718 ft 354 kts 170°
2026-04-22 08:44 27.75039 -80.53463 25105 ft 353 kts 170°
2026-04-22 08:44 27.72654 -80.52751 25239 ft 358 kts 170°
2026-04-22 08:44 27.70230 -80.52029 25239 ft 361 kts 170°
2026-04-22 08:44 27.67809 -80.51306 25236 ft 358 kts 170°
2026-04-22 08:45 27.65419 -80.50581 25234 ft 355 kts 168°
2026-04-22 08:45 27.63067 -80.49728 25250 ft 357 kts 166°
2026-04-22 08:45 27.60714 -80.48788 25257 ft 359 kts 165°
2026-04-22 08:45 27.58364 -80.47826 25257 ft 360 kts 165°
2026-04-22 08:46 27.56003 -80.46863 25255 ft 361 kts 165°
2026-04-22 08:46 27.53636 -80.45905 25242 ft 362 kts 165°
2026-04-22 08:46 27.51264 -80.44954 25241 ft 362 kts 165°
2026-04-22 08:46 27.48893 -80.44008 25236 ft 361 kts 165°
2026-04-22 08:47 27.46551 -80.43078 25238 ft 361 kts 165°
2026-04-22 08:47 27.44157 -80.42130 25237 ft 360 kts 165°
2026-04-22 08:47 27.41797 -80.41196 25239 ft 359 kts 165°
2026-04-22 08:47 27.39465 -80.40274 25236 ft 359 kts 165°
2026-04-22 08:48 27.37113 -80.39345 25235 ft 358 kts 165°
2026-04-22 08:48 27.34763 -80.38417 25236 ft 358 kts 165°
2026-04-22 08:48 27.32418 -80.37491 25233 ft 357 kts 165°
2026-04-22 08:48 27.30074 -80.36566 25226 ft 357 kts 165°
2026-04-22 08:49 27.27728 -80.35641 25227 ft 357 kts 165°
2026-04-22 08:49 27.25380 -80.34715 25219 ft 357 kts 165°
2026-04-22 08:49 27.23036 -80.33792 25226 ft 358 kts 165°
2026-04-22 08:49 27.20684 -80.32867 25221 ft 358 kts 166°
2026-04-22 08:50 27.18327 -80.31948 25221 ft 358 kts 166°
2026-04-22 08:50 27.15968 -80.31032 25220 ft 359 kts 166°
2026-04-22 08:50 27.13607 -80.30117 25223 ft 359 kts 166°
2026-04-22 08:50 27.11244 -80.29201 25225 ft 359 kts 166°
2026-04-22 08:51 27.08877 -80.28283 25217 ft 359 kts 166°
2026-04-22 08:51 27.06512 -80.27365 25163 ft 359 kts 166°
2026-04-22 08:51 27.04179 -80.26458 24982 ft 348 kts 166°
2026-04-22 08:51 27.01942 -80.25586 24878 ft 334 kts 166°
2026-04-22 08:52 26.99815 -80.24761 24524 ft 330 kts 166°
2026-04-22 08:52 26.97643 -80.23921 24072 ft 331 kts 166°
2026-04-22 08:52 26.95440 -80.23073 23617 ft 342 kts 165°
2026-04-22 08:52 26.93172 -80.22200 23017 ft 357 kts 165°
2026-04-22 08:53 26.90823 -80.21291 22402 ft 358 kts 164°
2026-04-22 08:53 26.88471 -80.20379 21805 ft 358 kts 164°
2026-04-22 08:53 26.86124 -80.19471 21202 ft 356 kts 164°
2026-04-22 08:53 26.83817 -80.18601 21009 ft 341 kts 165°
2026-04-22 08:54 26.81624 -80.17787 20904 ft 324 kts 165°
2026-04-22 08:54 26.79519 -80.17011 20687 ft 316 kts 165°
2026-04-22 08:54 26.77376 -80.16224 19781 ft 335 kts 165°
2026-04-22 08:54 26.75118 -80.15392 19319 ft 341 kts 164°
2026-04-22 08:55 26.72845 -80.14549 18885 ft 346 kts 164°
2026-04-22 08:55 26.70538 -80.13714 18506 ft 351 kts 166°
2026-04-22 08:55 26.68124 -80.13024 18050 ft 367 kts 169°
2026-04-22 08:55 26.65612 -80.12382 17586 ft 372 kts 169°
2026-04-22 08:56 26.63100 -80.11729 17125 ft 370 kts 168°
2026-04-22 08:56 26.60605 -80.11064 16687 ft 367 kts 168°
2026-04-22 08:56 26.58130 -80.10413 16254 ft 364 kts 169°
2026-04-22 08:56 26.55661 -80.09796 15696 ft 365 kts 169°
2026-04-22 08:57 26.53177 -80.09184 15228 ft 364 kts 169°
2026-04-22 08:57 26.50720 -80.08575 14800 ft 361 kts 168°
2026-04-22 08:57 26.48272 -80.07966 14360 ft 359 kts 168°
2026-04-22 08:57 26.45845 -80.07362 13921 ft 357 kts 168°
2026-04-22 08:58 26.43444 -80.06827 13448 ft 355 kts 170°
2026-04-22 08:58 26.41029 -80.06327 13103 ft 349 kts 170°
2026-04-22 08:58 26.38684 -80.05829 12950 ft 338 kts 168°
2026-04-22 08:58 26.36428 -80.05230 12806 ft 328 kts 166°
2026-04-22 08:59 26.34247 -80.04612 12668 ft 319 kts 166°
2026-04-22 08:59 26.32132 -80.04014 12537 ft 309 kts 166°
2026-04-22 08:59 26.30067 -80.03439 12404 ft 303 kts 166°
2026-04-22 08:59 26.28032 -80.02880 12276 ft 300 kts 166°
2026-04-22 09:00 26.25994 -80.02350 12168 ft 302 kts 172°
2026-04-22 09:00 26.23897 -80.02444 12060 ft 306 kts 192°
2026-04-22 09:00 26.21806 -80.02927 11936 ft 307 kts 193°
2026-04-22 09:00 26.19724 -80.03431 11798 ft 305 kts 193°
2026-04-22 09:01 26.17651 -80.03928 11670 ft 304 kts 192°
2026-04-22 09:01 26.15585 -80.04415 11545 ft 303 kts 192°
2026-04-22 09:01 26.13524 -80.04892 11403 ft 302 kts 192°
2026-04-22 09:01 26.11469 -80.05364 11271 ft 301 kts 192°
2026-04-22 09:02 26.09418 -80.05832 11148 ft 301 kts 192°
2026-04-22 09:02 26.07392 -80.06294 11027 ft 301 kts 192°
2026-04-22 09:02 26.05331 -80.06795 10791 ft 305 kts 193°
2026-04-22 09:02 26.03254 -80.07338 10552 ft 308 kts 194°
2026-04-22 09:03 26.01161 -80.07891 10298 ft 308 kts 194°
2026-04-22 09:03 25.99090 -80.08435 10037 ft 305 kts 194°
2026-04-22 09:03 25.97054 -80.08966 9941 ft 294 kts 193°
2026-04-22 09:03 25.95067 -80.09482 9539 ft 295 kts 193°
2026-04-22 09:04 25.93091 -80.10041 9274 ft 292 kts 201°
2026-04-22 09:04 25.91401 -80.11224 9012 ft 286 kts 225°
2026-04-22 09:04 25.90064 -80.12825 8786 ft 281 kts 229°
2026-04-22 09:04 25.88786 -80.14451 8542 ft 277 kts 234°
2026-04-22 09:05 25.87974 -80.16358 8301 ft 272 kts 259°
2026-04-22 09:05 25.87801 -80.18422 8100 ft 268 kts 270°
2026-04-22 09:05 25.87772 -80.20511 7722 ft 274 kts 270°
2026-04-22 09:05 25.87731 -80.22649 7305 ft 279 kts 269°
2026-04-22 09:06 25.87674 -80.24818 6876 ft 283 kts 269°
2026-04-22 09:06 25.87608 -80.27022 6421 ft 288 kts 269°
2026-04-22 09:06 25.87741 -80.29240 5953 ft 290 kts 288°
2026-04-22 09:06 25.88551 -80.31238 5676 ft 287 kts 300°
2026-04-22 09:07 25.89518 -80.33171 5364 ft 286 kts 301°
2026-04-22 09:07 25.90486 -80.35101 5052 ft 286 kts 300°
2026-04-22 09:07 25.91442 -80.37037 4733 ft 285 kts 300°
2026-04-22 09:07 25.92387 -80.38968 4429 ft 284 kts 300°
2026-04-22 09:08 25.93320 -80.40900 4131 ft 284 kts 297°
2026-04-22 09:08 25.93781 -80.42991 4022 ft 277 kts 271°
2026-04-22 09:08 25.93751 -80.45113 4017 ft 274 kts 268°
2026-04-22 09:08 25.93703 -80.47203 4000 ft 267 kts 268°
2026-04-22 09:09 25.93633 -80.49258 3759 ft 266 kts 267°
2026-04-22 09:09 25.93535 -80.51291 3625 ft 259 kts 264°
2026-04-22 09:09 25.92983 -80.53128 3565 ft 245 kts 232°
2026-04-22 09:09 25.91774 -80.54291 3532 ft 222 kts 198°
2026-04-22 09:10 25.90325 -80.54498 3497 ft 204 kts 161°
2026-04-22 09:10 25.89147 -80.53768 3482 ft 193 kts 126°
2026-04-22 09:10 25.88418 -80.52518 3441 ft 194 kts 109°
2026-04-22 09:10 25.88319 -80.51052 3419 ft 193 kts 84°
2026-04-22 09:11 25.88166 -80.49598 3377 ft 192 kts 104°
2026-04-22 09:11 25.87802 -80.48151 3276 ft 191 kts 103°
2026-04-22 09:11 25.87455 -80.46726 3159 ft 189 kts 103°
2026-04-22 09:11 25.87129 -80.45378 3056 ft 177 kts 103°
2026-04-22 09:12 25.86805 -80.44095 2929 ft 174 kts 106°
2026-04-22 09:12 25.86304 -80.42838 2598 ft 177 kts 113°
2026-04-22 09:12 25.85728 -80.41630 2340 ft 175 kts 115°
2026-04-22 09:12 25.85137 -80.40456 2101 ft 172 kts 116°
2026-04-22 09:13 25.84567 -80.39339 1871 ft 167 kts 116°
2026-04-22 09:13 25.84012 -80.38252 1680 ft 157 kts 115°
2026-04-22 09:13 25.83504 -80.37256 1452 ft 141 kts 115°
2026-04-22 09:13 25.83049 -80.36362 1290 ft 131 kts 115°
2026-04-22 09:14 25.82607 -80.35491 1114 ft 129 kts 115°
2026-04-22 09:14 25.82167 -80.34627 944 ft 129 kts 115°
2026-04-22 09:14 25.81721 -80.33751 762 ft 134 kts 114°
2026-04-22 09:14 25.81253 -80.32830 584 ft 138 kts 115°
2026-04-22 09:15 25.80785 -80.31916 407 ft 134 kts 117°
2026-04-22 09:15 25.80334 -80.31021 216 ft 132 kts 118°
2026-04-22 09:15 25.79885 -80.30141 43 ft 130 kts 119°
2026-04-22 09:15 25.79473 -80.29335 16 ft 102 kts 119°
2026-04-22 09:16 25.79200 -80.28797 13 ft 49 kts 119°
2026-04-22 09:16 25.79110 -80.28587 14 ft 27 kts 107°
2026-04-22 09:16 25.79138 -80.28430 18 ft 18 kts 45°
2026-04-22 09:16 25.79238 -80.28439 19 ft 17 kts 302°
2026-04-22 09:17 25.79292 -80.28549 17 ft 16 kts 297°
2026-04-22 09:17 25.79346 -80.28654 15 ft 15 kts 301°
2026-04-22 09:17 25.79400 -80.28761 14 ft 13 kts 299°
2026-04-22 09:17 25.79478 -80.28800 16 ft 13 kts 357°
2026-04-22 09:18 25.79567 -80.28805 19 ft 13 kts 358°
2026-04-22 09:18 25.79662 -80.28810 19 ft 15 kts 357°
2026-04-22 09:18 25.79771 -80.28815 19 ft 17 kts 358°
2026-04-22 09:18 25.79849 -80.28819 20 ft 12 kts 358°
2026-04-22 09:19 25.79928 -80.28800 21 ft 12 kts 55°
2026-04-22 09:19 25.79938 -80.28700 20 ft 14 kts 87°
2026-04-22 09:19 25.79943 -80.28577 18 ft 18 kts 88°
2026-04-22 09:19 25.79934 -80.28439 17 ft 13 kts 132°
2026-04-22 09:20 25.79886 -80.28392 16 ft 6 kts 106°
2026-04-22 09:20 25.79871 -80.28369 15 ft 3 kts 166°
2026-04-22 09:20 25.79848 -80.28368 15 ft 3 kts 178°
2026-04-22 09:20 25.79836 -80.28368 16 ft 1 kts 178°
2026-04-22 09:21 25.79833 -80.28367 17 ft 0 kts 178°